Date String (YYYY-MM-DD hh:mm:ss) UTC,Instrument flags,absolute air pressure of the measurement (hPa),sample flow rate (lpm),inlet stack bypass flow (lpm),air temperature of the measurement (°C),ambient temperature measured by the external sensor (°C),aerosol sample conditioner tube jacket temperature (°C),OPC LED temperature (°C),internal box temperature (°C),relative humidity of the measurement (%),span deviation,mass concentration of particles derived from Lorenz-Mie calculation of OPC scattering (μg/m³),mass concentration of particles derived from Lorenz-Mie calculation of OPC scattering (μg/m³),mass concentration of particles derived from Lorenz-Mie calculation of OPC scattering (μg/m³)
DateTimeUTC,F1_M11,P_M11,Q1_M11,Q2_M11,T1_M11,T2_M11,T3_M11,T4_M11,T5_M11,U1_M11,ZSPAN_M11,X0_M11,X2_M11,X1_M11
2023-12-11 17:00:00,SystemResetWarning,0831.3,5.00,000.00,021.9,021.3,000.0,030.0,023.3,15.3,0000.0,0005.83,0002.52,0001.98
2023-12-11 17:01:00,SystemResetWarning,0831.3,5.00,000.00,021.9,021.3,000.0,030.0,023.3,15.2,0000.0,0007.40,0002.53,0001.95
2023-12-11 17:02:00,SystemResetWarning,0831.3,5.00,000.00,021.9,021.3,000.0,030.1,023.3,15.4,0000.0,0007.35,0002.51,0001.93
2023-12-11 17:03:00,SystemResetWarning,0831.3,5.00,000.00,021.9,021.3,000.0,030.1,023.3,15.4,0000.0,0007.35,0002.51,0001.93
2023-12-11 17:04:00,SystemResetWarning,0831.3,5.00,000.00,022.0,021.3,000.0,030.1,023.3,15.3,0000.0,0007.45,0002.55,0001.91
2023-12-11 17:05:00,SystemResetWarning,0831.2,5.00,000.00,022.0,021.4,000.0,030.1,023.4,15.0,0000.0,0007.43,0002.51,0001.89
2023-12-11 17:06:00,SystemResetWarning,0831.3,5.00,000.00,022.0,021.4,000.0,030.1,023.4,15.2,0000.0,0007.36,0002.48,0001.86
2023-12-11 17:07:00,SystemResetWarning,0831.2,5.00,000.00,022.0,021.4,000.0,030.1,023.4,15.2,0000.0,0007.28,0002.45,0001.84
2023-12-11 17:08:00,SystemResetWarning,0831.2,5.00,000.00,022.0,021.4,000.0,030.1,023.4,15.4,0000.0,0008.14,0002.52,0001.84
2023-12-11 17:09:00,SystemResetWarning,0831.2,4.99,000.00,022.0,021.4,000.0,030.2,023.4,15.4,0000.0,0008.21,0002.52,0001.83
2023-12-11 17:10:00,SystemResetWarning,0831.3,4.99,000.00,022.1,021.5,000.0,030.2,023.5,15.3,0000.0,0008.23,0002.51,0001.82
2023-12-11 17:11:00,SystemResetWarning,0831.3,5.01,000.00,022.1,021.5,000.0,030.2,023.5,15.2,0000.0,0008.36,0002.47,0001.82
2023-12-11 17:12:00,SystemResetWarning,0831.2,5.02,000.00,022.1,021.5,000.0,030.2,023.5,15.1,0000.0,0007.38,0002.41,0001.82
2023-12-11 17:13:00,SystemResetWarning,0831.2,4.99,000.00,022.1,021.5,000.0,030.2,023.5,14.7,0000.0,0007.35,0002.37,0001.79
2023-12-11 17:14:00,SystemResetWarning,0831.1,4.99,000.00,022.1,021.5,000.0,030.2,023.6,14.4,0000.0,0007.38,0002.34,0001.77
2023-12-11 17:15:00,SystemResetWarning,0831.1,5.00,000.00,022.1,021.5,000.0,030.2,023.6,14.2,0000.0,0007.38,0002.32,0001.75
2023-12-11 17:16:00,SystemResetWarning,0831.1,5.00,000.00,022.2,021.6,000.0,030.3,023.6,14.4,0000.0,0007.60,0002.34,0001.73
2023-12-11 17:17:00,SystemResetWarning,0831.1,5.01,000.00,022.2,021.6,000.0,030.3,023.6,14.7,0000.0,0007.65,0002.35,0001.73
2023-12-11 17:18:00,SystemResetWarning,0831.1,5.00,000.00,022.2,021.6,000.0,030.3,023.6,14.4,0000.0,0007.66,0002.35,0001.72
2023-12-11 17:19:00,SystemResetWarning,0831.2,5.00,000.00,022.2,021.6,000.0,030.3,023.6,14.0,0000.0,0006.13,0002.20,0001.68
2023-12-11 17:20:00,SystemResetWarning,0831.2,5.00,000.00,022.2,021.6,000.0,030.3,023.6,14.1,0000.0,0005.31,0002.13,0001.66
2023-12-11 17:21:00,SystemResetWarning,0831.1,4.99,000.00,022.2,021.6,000.0,030.3,023.6,14.2,0000.0,0005.07,0002.08,0001.65
2023-12-11 17:22:00,SystemResetWarning,0831.1,5.00,000.00,022.2,021.6,000.0,030.4,023.7,14.4,0000.0,0004.00,0002.11,0001.63
2023-12-11 17:23:00,SystemResetWarning,0831.1,5.00,000.00,022.2,021.6,000.0,030.4,023.7,14.5,0000.0,0003.70,0002.13,0001.61
2023-12-11 17:24:00,SystemResetWarning,0831.2,5.00,000.00,022.3,021.6,000.0,030.4,023.7,14.5,0000.0,0003.79,0002.14,0001.61
2023-12-11 17:25:00,SystemResetWarning,0831.1,5.00,000.00,022.3,021.6,000.0,030.4,023.7,14.4,0000.0,0003.70,0002.13,0001.59
2023-12-11 17:26:00,SystemResetWarning,0831.2,4.99,000.00,022.3,021.7,000.0,030.4,023.7,14.3,0000.0,0003.70,0002.11,0001.60
2023-12-11 17:27:00,SystemResetWarning,0831.1,5.00,000.00,022.3,021.7,000.0,030.4,023.8,14.4,0000.0,0003.27,0002.08,0001.60
2023-12-11 17:28:00,SystemResetWarning,0831.1,5.00,000.00,022.3,021.7,000.0,030.5,023.8,14.7,0000.0,0003.22,0002.06,0001.59
2023-12-11 17:29:00,SystemResetWarning,0831.2,5.00,000.00,022.4,021.7,000.0,030.5,023.8,14.6,0000.0,0003.25,0002.04,0001.57
2023-12-11 17:30:00,SystemResetWarning,0831.2,5.00,000.00,022.4,021.8,000.0,030.5,023.9,14.6,0000.0,0003.30,0002.05,0001.57
2023-12-11 17:31:00,SystemResetWarning,0831.1,5.01,000.00,022.4,021.8,000.0,030.5,023.9,14.8,0000.0,0003.30,0002.05,0001.57
2023-12-11 17:32:00,SystemResetWarning,0831.2,5.00,000.00,022.4,021.8,000.0,030.5,023.9,14.8,0000.0,0003.33,0002.05,0001.57
2023-12-11 17:33:00,SystemResetWarning,0831.1,5.00,000.00,022.4,021.8,000.0,030.5,023.9,14.6,0000.0,0003.30,0001.99,0001.57
2023-12-11 17:34:00,SystemResetWarning,0831.2,4.99,000.00,022.5,021.9,000.0,030.6,023.9,14.7,0000.0,0003.84,0001.96,0001.56
2023-12-11 17:35:00,SystemResetWarning,0831.1,4.99,000.00,022.5,021.9,000.0,030.6,023.9,14.5,0000.0,0003.85,0001.95,0001.55
2023-12-11 17:36:00,SystemResetWarning,0831.2,4.99,000.00,022.5,021.9,000.0,030.6,024.0,14.8,0000.0,0003.89,0001.97,0001.55
2023-12-11 17:37:00,SystemResetWarning,0831.1,5.00,000.00,022.5,022.0,000.0,030.6,024.0,14.9,0000.0,0004.37,0001.95,0001.54
2023-12-11 17:38:00,SystemResetWarning,0831.1,5.00,000.00,022.6,022.0,000.0,030.6,024.0,14.5,0000.0,0004.82,0001.88,0001.51
2023-12-11 17:39:00,SystemResetWarning,0831.1,5.01,000.00,022.6,022.0,000.0,030.7,024.0,14.4,0000.0,0005.54,0001.86,0001.50
2023-12-11 17:40:00,SystemResetWarning,0831.1,5.00,000.00,022.6,022.0,000.0,030.7,024.1,14.5,0000.0,0005.99,0001.90,0001.51
2023-12-11 17:41:00,SystemResetWarning,0831.0,5.01,000.00,022.6,022.1,000.0,030.7,024.1,14.5,0000.0,0006.66,0001.92,0001.50
2023-12-11 17:42:00,SystemResetWarning,0831.0,5.00,000.00,022.7,022.1,000.0,030.7,024.1,14.4,0000.0,0006.64,0001.91,0001.49
2023-12-11 17:43:00,SystemResetWarning,0831.0,5.00,000.00,022.7,022.1,000.0,030.7,024.1,14.4,0000.0,0006.60,0001.90,0001.48
2023-12-11 17:44:00,SystemResetWarning,0831.1,5.00,000.00,022.7,022.1,000.0,030.8,024.1,14.4,0000.0,0006.51,0001.89,0001.46
2023-12-11 17:45:00,SystemResetWarning,0831.1,5.00,000.00,022.7,022.1,000.0,030.8,024.2,14.5,0000.0,0006.10,0001.85,0001.43
2023-12-11 17:46:00,SystemResetWarning,0831.1,5.00,000.00,022.7,022.2,000.0,030.8,024.2,14.5,0000.0,0006.12,0001.83,0001.42
2023-12-11 17:47:00,SystemResetWarning,0831.1,5.00,000.00,022.8,022.2,000.0,030.8,024.2,14.8,0000.0,0006.04,0001.79,0001.41
2023-12-11 17:48:00,SystemResetWarning,0831.1,5.00,000.00,022.8,022.2,000.0,030.8,024.3,14.8,0000.0,0005.82,0001.74,0001.38
2023-12-11 17:49:00,SystemResetWarning,0831.0,5.00,000.00,022.8,022.2,000.0,030.9,024.3,14.8,0000.0,0004.73,0001.74,0001.38
2023-12-11 17:50:00,SystemResetWarning,0831.0,5.00,000.00,022.8,022.3,000.0,030.9,024.3,14.8,0000.0,0004.29,0001.72,0001.37
2023-12-11 17:51:00,SystemResetWarning,0831.0,5.00,000.00,022.8,022.3,000.0,030.9,024.3,15.0,0000.0,0003.65,0001.66,0001.36
2023-12-11 17:52:00,SystemResetWarning,0831.1,5.00,000.00,022.9,022.3,000.0,030.9,024.3,15.2,0000.0,0002.59,0001.59,0001.35
2023-12-11 17:53:00,SystemResetWarning,0831.0,5.00,000.00,022.9,022.3,000.0,030.9,024.3,15.8,0000.0,0002.67,0001.62,0001.36
2023-12-11 17:54:00,SystemResetWarning,0831.0,5.00,000.00,022.9,022.3,000.0,031.0,024.3,15.2,0000.0,0002.78,0001.64,0001.37
2023-12-11 17:55:00,SystemResetWarning,0831.0,5.00,000.00,022.9,022.3,000.0,031.0,024.3,14.9,0000.0,0002.82,0001.68,0001.39
2023-12-11 17:56:00,SystemResetWarning,0831.0,5.00,000.00,022.9,022.3,000.0,031.0,024.4,15.0,0000.0,0003.09,0001.72,0001.41
2023-12-11 17:57:00,SystemResetWarning,0831.0,5.00,000.00,022.9,022.3,000.0,031.0,024.4,15.0,0000.0,0002.81,0001.71,0001.43
2023-12-11 17:58:00,SystemResetWarning,0831.0,5.00,000.00,023.0,022.4,000.0,031.0,024.4,15.3,0000.0,0002.83,0001.75,0001.46
2023-12-11 17:59:00,SystemResetWarning,0831.0,4.99,000.00,023.0,022.4,000.0,031.1,024.5,15.1,0000.0,0003.15,0001.80,0001.49
